Location: Caltech
(34.1382°N, 118.1253°W)
Time: 15:19:04
(UTC-08:00)

Iridium 68 - Visible Passes

Search period start: 06 February 2016 00:00
Search period end: 16 February 2016 00:00
Orbit: 776 x 779 km, 86.4° (Epoch: 06 February)

Date Brightness Start Highest point End Pass type
(mag) Time Alt. Az. Time Alt. Az. Time Alt. Az.
06 Feb 8.8 06:16:45 10° NNE 06:20:33 20° E 06:24:20 10° SE visible
06 Feb 7.1 19:08:34 10° SSE 19:11:04 27° SE 19:11:04 27° SE visible
06 Feb 8.9 20:51:18 10° WSW 20:51:42 11° WSW 20:51:42 11° WSW visible
07 Feb 7.0 18:36:05 10° SE 18:40:12 24° E 18:40:45 24° ENE visible
07 Feb 7.7 20:16:09 10° SW 20:20:42 31° W 20:25:17 10° NNW visible
08 Feb 7.7 18:04:56 10° ESE 18:06:59 12° E 18:09:02 10° NE visible
08 Feb 6.5 19:41:56 10° SSW 19:47:04 60° W 19:52:14 10° N visible
09 Feb 8.3 06:16:14 10° NNE 06:20:47 30° E 06:25:17 10° SE visible
09 Feb 5.9 19:08:24 10° S 19:13:34 70° E 19:18:45 10° N visible
09 Feb 9.1 20:53:57 10° W 20:54:45 10° WNW 20:55:33 10° WNW visible
10 Feb 9.0 05:43:57 10° NE 05:47:01 16° ENE 05:50:03 10° ESE visible
10 Feb 6.5 18:35:27 10° SSE 18:40:09 36° E 18:44:53 10° NNE visible
10 Feb 8.4 20:17:04 10° SW 20:20:55 21° W 20:24:48 10° NNW visible
11 Feb 7.3 18:03:20 10° SE 18:06:53 19° E 18:10:25 10° NE visible
11 Feb 7.3 19:42:21 10° SSW 19:47:13 39° W 19:52:06 10° NNW visible
12 Feb 6.1 19:08:26 10° S 19:13:38 78° W 19:18:52 10° N visible
13 Feb 8.6 05:43:10 10° NNE 05:47:16 23° E 05:51:21 10° SE visible
13 Feb 6.1 18:35:07 10° SSE 18:40:10 54° E 18:45:14 10° NNE visible
13 Feb 8.9 20:18:33 10° WSW 20:21:11 14° WNW 20:23:50 10° NW visible
14 Feb 9.2 05:11:37 10° NE 05:13:27 12° ENE 05:15:16 10° E visible
14 Feb 6.9 18:02:27 10° SE 18:06:49 28° E 18:11:10 10° NNE visible
14 Feb 8.1 19:43:03 10° SW 19:47:24 27° W 19:51:46 10° NNW visible
15 Feb 6.9 19:08:41 10° SSW 19:13:44 52° W 19:18:50 10° N visible
